Retour au catalogue

STARLINK-37176

ActifCommunicationsSSO
NORAD 68615·PAYLOAD·🇺🇸 United States

Lancé Apr 5, 2026 depuis Vandenberg Space Force Base

Loading…

Prochains Passages (prochaines 24 heures)

TLE

FraisSource: CelesTrak SupGP

Époque: Sep 15, 2026, 03:57 UTC

1 68615C 26073P   26258.16506944 -.00055944  00000+0 -17366-2 0  2583
2 68615  97.2855  96.3096 0001768  92.8538   8.9088 15.33466761    10

Suivez STARLINK-37176 en temps réel avec AllMySat

Download on the App Store